Orbital Elements at Epoch 2459200.5 (2020-Dec-17.0) TDB
Reference: JPL 16 (heliocentric ecliptic J2000)
Element | Value | Uncertainty (1-sigma) | Units |
e | .09333980165521505 | 4.9526e-08 | |
a | 3.097679653664382 | 2.7284e-08 | au |
q | 2.808542849199953 | 1.6341e-07 | au |
i | 11.18934714154606 | 4.3428e-06 | deg |
node | 125.9256146799532 | 3.0088e-05 | deg |
peri | 239.0195191569691 | 4.1667e-05 | deg |
M | 285.7777279433003 | 3.136e-05 | deg |
tp | 2459611.067837828653 (2022-Jan-31.56783783) | 0.00017542 | TDB |
period | 1991.375600916724 5.45 | 2.631e-05 7.203e-08 | d yr |
n | .1807795575250973 | 2.3884e-09 | deg/d |
Q | 3.38681645812881 | 2.9831e-08 | au |
|
| | Orbit Determination Parameters
Additional Information
|